#timestamp,LO_Frequency,Hit,StdDev 
1509087615.7,286047000.1,N
1509087665.5,286047000.1,E
1509087675.5,286046999.9,N
1509087695.3,286047002.7,P
1509087715.1,286047002.2,N
1509087735.9,286047000.1,N
1509087755.7,286047000.1,N
1509087775.5,286047002.3,N
1509087795.4,286047000.3,N
1509087815.2,286047000.5,N
1509087835.1,286047000.2,N
1509087836.0,286047000.2,N
1509087855.8,286046999.7,N
1509087875.6,286047002.7,N
1509087895.5,286047000.1,N
1509087915.3,286046999.9,N
1509087935.2,286046999.8,N
1509087955.9,286047000.2,N
1509087975.7,286047002.1,N
1509087995.6,286047002.3,N
1509088015.4,286047001.3,N
1509088035.2,286047001.4,N
1509088055.1,286047001.7,N
1509088056.0,286047001.7,N
1509088075.8,286047002.4,N
1509088095.7,286047002.1,N
1509088115.5,286047001.5,N
1509088135.3,286047003.8,Y
1509088155.2,286047003.9,P
1509088175.0,286047003.7,N
1509088175.9,286047003.7,N
1509088195.8,286047003.0,N
1509088215.6,286047003.4,Y
1509088235.4,286047002.6,P
1509088255.3,286047002.7,P
1509088275.1,286047001.0,P
1509088295.8,286046999.8,N
1509088315.7,286047001.6,N
1509088335.5,286047002.8,N
1509088355.4,286047002.0,N
1509088375.2,286047002.6,N
1509088395.0,286047002.7,N
1509088395.9,286047002.7,N
1509088415.8,286047000.5,N
1509088435.6,286047001.2,N
1509088455.5,286047002.8,N
1509088475.3,286047002.3,N
1509088495.1,286046999.7,N
1509088515.9,286047002.1,N
1509088535.7,286047003.8,Y
1509088555.5,286047002.1,P
1509088575.4,286047002.2,P
1509088595.2,286047002.7,P
1509088615.1,286046999.9,N
1509088616.0,286046999.9,N
1509088635.8,286047001.7,N
1509088655.6,286047001.5,N
1509088675.5,286047002.5,N
1509088695.3,286047001.3,N
1509088715.1,286047001.8,N
1509088735.9,286047001.6,N
1509088755.7,286047004.4,Y
1509088775.6,286047001.6,P
1509088795.4,286047004.3,P
1509088815.2,286047003.6,N
1509088835.1,286047001.8,N
1509088836.0,286047001.8,N
1509088855.8,286047002.1,N
1509088875.6,286047002.4,N
1509088895.5,286047000.3,N
1509088915.3,286047002.4,N
1509088935.2,286047000.1,N
1509088955.9,286046999.9,N
1509088975.7,286047000.6,N
1509088995.6,286047000.5,N
1509089015.4,286047002.3,N
1509089035.3,286047000.0,N
1509089055.1,286047002.0,N
1509089056.0,286047002.0,N
1509089075.8,286047001.3,N
1509089095.7,286047002.3,N
1509089115.5,286047000.2,N
1509089135.3,286047002.5,N
1509089155.2,286047002.0,N
1509089175.0,286046999.7,N
1509089175.9,286046999.7,N
1509089195.8,286047001.9,N
1509089215.6,286047002.6,N
1509089235.4,286047000.6,N
1509089255.3,286047002.3,N
1509089275.1,286047004.3,Y
1509089295.8,286047002.4,P
1509089315.7,286047002.8,P
1509089335.5,286047001.0,N
1509089355.4,286047002.5,Y
1509089375.2,286047002.6,P
1509089395.0,286047001.3,P
1509089395.9,286047001.3,N
1509089415.8,286047002.0,Y
1509089435.6,286046998.2,P
1509089455.5,286046999.6,N
1509089475.3,286046996.6,N
1509089495.1,286046998.8,N
1509089515.9,286046998.3,N
1509089535.7,286046998.6,N
1509089555.5,286046998.1,N
1509089575.4,286047000.4,N
1509089595.2,286047000.6,N
1509089615.1,286046999.9,N
1509089616.0,286046999.9,N
1509089635.8,286046998.8,N
1509089655.6,286047001.2,N
1509089675.5,286047001.1,N
1509089695.3,286047000.7,N
1509089715.1,286047001.2,N
1509089735.9,286047000.7,N
1509089755.7,286047000.8,N
1509089775.6,286047000.4,N
1509089795.4,286046999.7,N
1509089815.2,286046999.9,N
1509089835.1,286047000.3,N
1509089836.0,286047000.3,N
1509089855.8,286046999.8,N
1509089875.6,286047002.8,N
1509089895.5,286047004.3,Y
1509089915.3,286047001.4,P
1509089935.2,286047001.3,N
1509089955.9,286047001.7,N
1509089975.7,286047003.8,Y
1509089995.6,286047002.0,P
1509090015.4,286047004.0,P
1509090035.3,286047003.3,N
1509090055.1,286047005.0,Y
1509090056.0,286047005.0,P
1509090075.8,286047002.7,N
1509090095.7,286047001.6,N
1509090115.5,286046999.7,N
1509090135.3,286047000.1,N
1509090155.2,286047001.0,N
1509090175.0,286046998.3,N
1509090175.9,286046998.3,N
1509090195.8,286047001.1,N
1509090215.6,286047001.1,N
1509090235.4,286047001.0,N
1509090255.3,286047002.5,N
1509090275.1,286047004.1,N
1509090295.9,286047003.7,N
1509090315.7,286047005.5,N
1509090335.5,286047004.5,N
1509090355.4,286047004.5,N
1509090375.2,286047004.8,N
1509090395.0,286047005.4,N
1509090395.9,286047005.4,N
1509090415.8,286047003.3,N
1509090435.6,286047003.3,N
1509090455.5,286047005.4,N
1509090475.3,286047003.6,N
1509090495.1,286047001.5,N
1509090515.9,286047003.7,N
1509090535.7,286047003.7,N
1509090555.5,286047003.0,N
1509090575.4,286047004.0,N
1509090595.2,286047004.2,N
1509090615.1,286047004.0,N
1509090616.0,286047004.0,N
1509090635.8,286047003.4,N
1509090655.6,286047007.6,Y
1509090675.5,286047004.3,P
1509090695.3,286047002.0,N
1509090715.2,286047004.1,P
1509090735.9,286047002.9,Y
1509090755.7,286047002.7,P
1509090775.6,286047000.0,N
1509090795.4,286047000.2,N
1509090815.2,286047004.3,N
1509090835.1,286047003.5,N
1509090836.0,286047003.5,N
1509090855.8,286047003.9,N
1509090875.7,286047001.8,N
1509090895.5,286047001.9,N
1509090915.3,286047004.3,N
1509090935.2,286047003.8,N
1509090955.0,286047003.9,N
1509090955.9,286047003.9,N
1509090975.7,286047003.6,N
1509090995.6,286047003.2,N
1509091015.4,286047006.0,Y
1509091035.3,286047001.3,P
1509091055.1,286047003.4,P
1509091075.8,286047004.2,P
1509091095.7,286047004.2,Y
1509091115.5,286046999.7,P
1509091135.4,286047000.4,N
1509091155.2,286047002.4,N
1509091175.0,286046999.5,N
1509091175.9,286046999.5,N
1509091195.8,286046996.6,N
